Location: Cherry Lake
(38.0007°N, 119.9069°W)
Time: 01:57:21
(UTC+00:00)

Daily predictions for brighter satellites

Satellite Brightness Start Highest point End
(mag) Time Altitude Azimuth Time Altitude Azimuth Time Altitude Azimuth
Cosmos 1782 2.7 03:32:39 10° S 03:36:23 60° E 03:40:09 10° NNE
Meteor 2-21 4.5 03:32:57 10° S 03:39:04 68° E 03:45:11 10° NNE
SL-24 R/B - RUBIN 2 4.4 03:33:32 10° SSW 03:39:27 81° ESE 03:46:02 10° NNE
Cosmos 2237 Rocket 3.6 03:34:17 10° SW 03:39:44 46° WNW 03:45:13 10° N
PSLV R/B 4.4 03:37:42 10° SE 03:41:11 37° ENE 03:44:39 10° N
OAO 2 Rocket 3.7 03:39:01 10° W 03:44:12 57° S 03:49:20 10° ESE
USA 290 3.7 03:41:50 10° N 03:44:27 23° ENE 03:47:04 10° ESE
Okean O Rocket 2.0 03:40:31 10° SSE 03:44:46 47° ENE 03:49:01 10° N
Cosmos-2242 3.0 03:41:05 10° S 03:45:17 88° W 03:49:32 10° N
Cosmos 1943 4.5 03:51:34 10° SE 03:55:31 20° E 03:59:26 10° NE
DELTA 2 DEB (DPAF) 4.0 03:54:31 10° NNE 03:58:45 89° WNW 04:02:58 10° SSW
Cosmos 1072 Rocket 4.4 03:53:54 10° N 04:00:03 77° E 04:06:08 10° S
Cosmos 2344 4.4 03:53:59 10° NNW 04:02:49 70° NE 04:14:20 12° SE
Cosmos 44 4.2 04:00:19 10° NNW 04:04:40 34° NE 04:08:06 14° ESE
SL-8 R/B 3.6 04:00:19 10° SW 04:05:03 84° SSE 04:09:50 10° ENE
Cosmos 1943 Rocket 2.6 04:01:15 10° NNW 04:06:51 66° WSW 04:12:23 10° S
Cosmos 2221 2.7 04:13:33 10° S 04:17:43 52° E 04:21:56 10° NNE
ERS-1 Rocket 4.3 04:15:21 15° ESE 04:18:20 25° ENE 04:22:22 10° NNE
Lacrosse 5 rocket 4.4 04:16:31 10° WNW 04:19:25 17° NNW 04:22:19 10° N
Cosmos 494 Rocket 4.4 04:15:06 10° S 04:19:50 40° ESE 04:24:35 10° NNE
USA 186 3.8 04:17:15 10° SSW 04:19:58 26° W 04:22:44 10° NW
CZ-4C R/B 3.2 04:19:33 10° NNE 04:23:22 69° ESE 04:27:20 10° S
Okean-O 2.6 04:21:14 15° SSE 04:24:46 68° ENE 04:29:09 10° N
CZ-4B R/B 4.2 04:19:45 10° S 04:24:51 44° W 04:29:55 10° NNW
Cosmos 2278 Rocket 4.2 04:22:38 10° NW 04:27:04 24° W 04:31:31 10° SSW
CARTOSAT-1 4.4 04:24:33 10° S 04:28:39 47° W 04:32:46 10° NNW
ATLAS 3B R/B 3.0 04:22:25 10° NNW 04:30:20 84° ENE 04:36:15 19° SE
Cosmos 1464 Rocket 4.4 04:24:25 10° NNW 04:30:39 66° W 04:36:45 10° S
Cosmos 921 Rocket 3.0 04:31:48 10° SSW 04:36:15 85° ESE 04:40:45 10° NNE
Cosmos 1378 4.4 04:35:15 10° SSW 04:38:16 35° W 04:41:20 10° N
Cosmos 2297 3.9 04:32:53 10° NNW 04:38:34 59° ENE 04:41:57 24° SE
MetOp-B 4.2 04:35:30 21° SSE 04:39:07 64° ENE 04:44:26 10° N
Cosmos 1371 Rocket 4.0 04:34:15 10° NNW 04:39:37 76° ENE 04:43:01 23° SSE
Lacrosse 5 2.0 04:36:51 10° NW 04:41:57 72° SW 04:44:52 25° SSE
Cosmos 1420 Rocket 4.1 04:42:37 10° NNW 04:47:55 75° WSW 04:51:27 22° S
MOS 1 4.3 04:44:24 18° SSE 04:48:46 83° WSW 04:54:28 10° NNW
Terra 2.3 04:50:17 29° ESE 04:52:04 42° ENE 04:56:31 10° N
Cosmos 1743 2.5 04:48:54 10° N 04:52:30 66° E 04:53:28 43° SE
SPOT 3 Rocket 4.3 04:53:09 27° ESE 04:55:05 36° ENE 04:59:45 10° N
Cosmos 2279 Rocket 4.4 04:52:55 10° N 04:58:51 45° ENE 05:01:25 30° SE
SL-16 R/B 3.9 04:54:19 10° SW 04:59:26 34° WNW 05:04:35 10° N
GEOS 3 Rocket 3.5 04:55:55 10° NE 05:00:59 59° ESE 05:05:59 10° SSW
Cosmos 1603 3.9 04:59:26 28° SSE 05:02:00 46° ESE 05:07:25 10° NE
Spot 2 Rocket 3.8 05:00:14 33° SE 05:02:03 48° ENE 05:06:54 10° N
IRS-1A Rocket 4.2 04:59:19 27° SSE 05:02:33 86° ENE 05:08:09 10° NNW
SPOT 5 2.8 05:00:20 27° S 05:02:50 74° W 05:07:19 10° NNW
Meteor 2-6 Rocket 4.2 04:58:56 13° S 05:03:59 86° W 05:09:31 10° N
Cosmos 1634 Rocket 3.9 04:58:21 10° N 05:04:39 79° E 05:08:07 28° SSE
Resurs 01 Rocket 4.1 05:02:56 10° SW 05:05:52 17° W 05:08:49 10° NW
ISS -1.4 05:04:52 10° NNW 05:07:07 17° NNE 05:08:29 14° NE
Cosmos 2263 4.4 05:03:28 10° NNW 05:09:07 58° ENE 05:11:17 36° SE
Cosmos 1726 2.8 05:06:56 10° N 05:09:12 31° NE 05:09:12 31° NE
USA 276 3.8 05:08:42 10° NNW 05:09:54 20° N 05:09:54 20° N
Cosmos 2369 Rocket 2.1 05:08:28 10° NNW 05:14:06 87° ENE 05:16:18 39° SSE
Okean 3 Rocket 3.4 05:11:56 10° N 05:16:19 73° E 05:17:12 54° SSE
Cosmos 1842 Rocket 3.6 05:17:14 33° SSW 05:19:11 76° W 05:23:37 10° N
Okean O Rocket 4.3 05:18:55 10° SW 05:21:15 14° W 05:23:35 10° WNW
Ariane Rocket 2.9 05:23:15 47° SSE 05:24:43 79° ENE 05:29:49 10° N
ARGOS Delta rocket 4.1 05:25:55 37° S 05:27:55 68° W 05:32:49 10° NNW
Cosmos 1656 Rocket 4.2 05:25:16 10° NNW 05:30:32 50° WSW 05:32:42 32° SSW
Landsat 4 3.8 05:32:03 62° W 05:32:03 62° W 05:35:27 10° NNW
USA 229 DEB 4.0 05:24:47 10° NNW 05:32:27 88° ENE 05:35:58 39° SSE
USA 229 4.0 05:24:53 10° NNW 05:32:33 87° ENE 05:36:04 39° SE
Meteor 1-27 Rocket 3.7 05:33:37 51° SE 05:34:39 60° E 05:40:05 10° NNE
Cosmos 1340 Rocket 3.8 05:36:22 34° NE 05:36:22 34° NE 05:39:07 10° NNE
Spot 1 3.8 05:34:33 10° NNE 05:38:40 87° ESE 05:38:48 83° SSE
Cosmos 1943 3.9 05:33:31 10° SW 05:39:03 53° WNW 05:44:36 10° NNE
Cosmos 1452 Rocket 3.4 05:34:18 10° NNW 05:39:32 74° ENE 05:40:24 60° SE
Cosmos 2084 4.4 05:37:26 10° NW 05:40:39 31° WSW 05:40:39 31° WSW
Cosmos 2180 Rocket 4.4 05:36:04 10° N 05:42:15 75° E 05:43:51 51° SSE
Cosmos 2142 Rocket 4.5 05:39:55 10° N 05:46:18 86° W 05:48:23 46° S
ARIANE 5 R/B 4.4 05:51:42 20° ENE 05:51:42 20° ENE 05:54:27 10° NNE
Sich 1 3.3 05:48:30 10° N 05:52:22 57° NE 05:52:22 57° NE
Meteor 2-4 Rocket 4.4 05:56:10 40° E 05:56:10 40° E 06:01:33 10° NNE
ERS-1 Rocket 4.2 05:55:17 28° SW 05:56:52 35° W 06:01:27 10° NNW
Meteor 2-9 Rocket 4.2 05:55:06 10° N 06:00:58 84° E 06:01:51 66° SSE
FALCON 9 R/B 3.8 05:58:27 10° W 06:05:01 64° S 06:30:07 10° ESE
Cosmos 1743 Rocket 3.8 06:00:56 10° N 06:04:46 65° NNE 06:04:46 65° NNE
Lacrosse 4 Rocket 4.0 06:04:24 10° NNE 06:05:43 11° NE 06:05:57 11° NE
Landsat 5 4.2 06:02:24 10° N 06:05:48 44° WNW 06:05:48 44° WNW
MOS 1 Rocket 4.3 06:13:27 39° WSW 06:14:10 41° W 06:19:07 10° NNW
Cosmos 614 Rocket 4.0 06:15:46 67° ENE 06:15:46 67° ENE 06:20:26 10° NNE
USA 59 Rocket 1.7 06:13:32 10° N 06:17:15 28° NE 06:17:27 28° ENE
Cosmos 1975 4.5 06:13:54 10° N 06:16:04 27° NNE 06:16:04 27° NNE
Cosmos 1428 Rocket 4.3 06:17:16 72° SSE 06:17:53 81° E 06:24:01 10° N
Cosmos 1536 4.5 06:18:52 10° NNW 06:21:45 28° WNW 06:21:45 28° WNW
Cosmos 1092 Rocket 3.9 06:22:39 66° ESE 06:22:57 67° E 06:29:12 10° NNE
USA 281 3.3 06:23:07 55° SSW 06:24:19 64° WSW 06:30:53 10° NNW
Cosmos 1302 Rocket 4.0 06:20:53 10° NNW 06:25:45 73° NNE 06:25:45 73° NNE
Terra 3.9 06:28:59 17° WSW 06:29:49 18° W 06:32:58 10° NW
IRIDIUM 104 4.4 06:26:26 10° N 06:31:10 70° NE 06:31:10 70° NE
Cosmos 2195 Rocket 4.3 06:36:02 72° SW 06:36:35 79° W 06:42:43 10° N
CZ-2C R/B 4.3 06:32:47 10° N 06:36:13 52° N 06:36:13 52° N
Cosmos 1818 4.0 06:40:38 55° NE 06:40:38 55° NE 06:44:55 10° NNE
IRIDIUM 114 4.4 06:35:34 10° N 06:40:18 73° NNW 06:40:18 73° NNW
ISS -0.7 06:40:46 10° NW 06:41:16 14° NW 06:41:16 14° NW
Cosmos 1151 Rocket 4.4 06:45:00 34° WNW 06:45:00 34° WNW 06:48:31 10° N
Cosmos 1833 Rocket 3.7 06:54:45 36° ENE 06:54:45 36° ENE 06:58:26 10° NE
ALOS 2 4.1 07:08:14 32° NNE 07:08:14 32° NNE 07:10:56 10° N
H-2A R/B 4.4 07:04:57 10° NE 07:06:13 16° NE 07:06:13 16° NE
Cosmos 1633 Rocket 4.4 07:05:30 10° NNW 07:08:17 37° NNW 07:08:17 37° NNW
Cosmos 1656 4.0 07:21:45 10° NNW 07:26:08 58° NNW 07:26:08 58° NNW
NOSS 3-3 (A) 4.5 07:31:05 43° WNW 07:31:46 45° NW 07:37:40 10° NNE
USA 267 3.2 07:32:29 10° NE 07:39:02 81° NW 07:39:35 74° W
S3M 4.2 07:37:21 10° N 07:43:29 66° ENE 07:43:29 66° ENE
Lacrosse 4 Rocket 3.6 07:40:21 10° NNW 07:41:51 22° NW 07:41:51 22° NW
Cosmos 2285 Rocket 4.0 07:51:06 77° NNE 07:51:06 77° NNE 07:56:57 10° NNE
Cosmos 1697 Rocket 3.1 07:47:40 10° NNW 07:52:32 57° NNE 07:52:32 57° NNE
Cosmos 1553 Rocket 4.4 07:47:38 10° NNW 07:52:56 51° WNW 07:52:56 51° WNW
Meteor 1-13 Rocket 4.5 07:55:22 70° N 07:55:22 70° N 08:00:34 10° N
Cosmos 1980 Rocket 3.4 07:55:10 10° N 08:00:19 34° ENE 08:00:53 33° ENE
COSMOS 2406 4.2 08:07:38 38° ENE 08:07:38 38° ENE 08:11:47 10° NE
USA 59 Rocket 2.4 08:02:40 10° NW 08:03:59 18° WNW 08:03:59 18° WNW
CZ-2C R/B 3.9 08:07:55 49° ENE 08:07:55 49° ENE 08:18:31 10° N
Cosmos 1607 4.3 08:10:57 56° WNW 08:11:23 57° NW 08:17:47 10° NNE
USA 234 4.4 08:06:06 10° E 08:12:05 40° NNE 08:18:05 10° NNW
Meteor 2-10 Rocket 4.2 08:09:46 10° N 08:15:04 54° ENE 08:15:04 54° ENE
Cosmos 1655 Rocket 4.0 08:18:52 76° NW 08:18:52 76° NW 08:24:56 10° N
Cosmos 2082 Rocket 2.4 08:36:05 69° N 08:36:05 69° N 08:41:06 10° NNE
Meteor 1-21 4.4 08:36:16 66° NE 08:36:16 66° NE 08:41:18 10° NNE
Cosmos 1833 Rocket 4.3 08:36:23 23° WNW 08:37:11 24° WNW 08:41:39 10° N
Meteor 2-20 4.4 08:34:16 10° N 08:40:17 79° ENE 08:40:17 79° ENE
H-2A R/B 4.0 08:40:28 10° NNW 08:43:01 24° NW 08:43:01 24° NW
BREEZE-M R/B 4.5 08:47:03 33° ESE 08:47:03 33° ESE 08:53:10 10° ENE
Meteor 1-12 Rocket 4.5 08:40:40 10° NNW 08:45:56 67° NW 08:45:56 67° NW
CZ-2D R/B 4.2 08:43:54 10° NE 08:47:19 17° E 08:47:51 16° E
DELTA 2 R/B (1) 4.1 08:49:50 51° ENE 08:49:50 51° ENE 08:53:58 10° E
Resurs 1-4 Rocket 3.7 08:56:51 10° NE 09:00:59 23° E 09:01:18 23° E
Cosmos 1953 4.2 08:58:34 10° NNE 09:00:54 27° NE 09:00:54 27° NE
Cosmos 676 Rocket 4.3 09:03:55 65° NNW 09:03:55 65° NNW 09:08:36 10° NNE
Cosmos 468 Rocket 4.2 09:05:25 10° NNW 09:10:03 69° N 09:10:03 69° N
CZ-2C R/B 4.4 09:15:09 17° ESE 09:17:47 26° ENE 09:21:59 10° NNE
Cosmos 1763 Rocket 4.4 09:14:20 10° NNW 09:18:00 39° WNW 09:18:00 39° WNW
Lacrosse 5 rocket 3.9 09:16:44 10° NNW 09:19:46 20° NE 09:22:42 10° E
Meteor 2-20 Rocket 4.4 09:13:53 10° NNW 09:20:22 71° W 09:20:41 69° WSW
Cosmos 2322 Rocket 4.1 09:25:45 10° N 09:30:31 27° ENE 09:35:18 10° ESE
MOZ.5/SAFIR/RUBIN 5/SL-8 3.9 09:31:01 72° NE 09:31:01 72° NE 09:35:27 10° N
Okean 1-7 4.1 09:33:00 38° NNW 09:33:00 38° NNW 09:35:59 10° N
Cosmos 1745 Rocket 3.8 09:31:52 70° S 09:32:39 88° E 09:38:56 10° N
Cosmos 1315 Rocket 4.0 09:36:05 39° N 09:36:05 39° N 09:38:37 10° N
Cosmos 540 Rocket 4.3 09:31:52 10° NNW 09:35:30 39° WNW 09:35:30 39° WNW
NPP 3.7 09:32:11 10° NNE 09:37:34 67° ESE 09:38:03 63° SE
ALOS 4.5 09:39:13 10° NE 09:42:08 16° E 09:43:48 14° ESE
SJ 16-02 2.4 09:43:39 37° E 09:43:39 37° E 09:47:29 10° NE
NOSS 3-4 (A) 4.2 09:36:49 10° NW 09:43:43 47° WSW 09:43:55 47° WSW
NOSS 3-4 (C) 4.2 09:36:55 10° NW 09:43:49 47° WSW 09:44:04 47° WSW
Cosmos 1980 Rocket 3.5 09:39:13 10° NW 09:42:36 27° WNW 09:42:36 27° WNW
ADEOS II 3.1 09:42:24 10° NNE 09:47:16 38° E 09:48:35 33° SE
ATLAS CENTAUR R/B 4.3 09:39:36 10° NW 09:50:43 41° WSW 09:51:48 40° SW
IDEFIX/ARIANE 42P 2.4 09:46:26 10° NNE 09:51:43 88° WNW 09:52:14 74° SSW
Genesis I 4.3 09:53:59 39° NE 09:53:59 39° NE 09:56:21 10° NE
USA 234 3.2 09:52:38 42° SSE 09:54:50 63° SW 10:01:21 10° NW
Cosmos 1455 4.0 09:52:24 10° NNW 09:53:51 23° NNW 09:53:51 23° NNW
Nadezhda 1 Rocket 4.0 09:53:40 10° NNW 09:59:59 63° W 10:01:12 53° SW
Cosmos 1782 Rocket 3.4 10:00:46 10° N 10:04:59 81° NW 10:04:59 81° NW
Cosmos 1850 Rocket 4.3 10:07:29 48° W 10:08:06 51° WNW 10:13:15 10° N
CZ-2C R/B 3.3 10:05:48 10° NNE 10:11:38 76° E 10:13:31 44° S
Cosmos 1741 Rocket 4.4 10:12:46 45° W 10:13:28 48° WNW 10:18:32 10° N
SL-16 R/B 2.1 10:09:44 10° NNW 10:15:26 81° WSW 10:17:48 37° SSE
SL-27 R/B 3.7 10:18:20 31° NNE 10:18:20 31° NNE 10:19:56 10° NNE
H-2A R/B 4.3 10:16:25 10° N 10:19:45 35° WNW 10:19:45 35° WNW
Cosmos 2082 Rocket 4.4 10:17:54 10° WNW 10:20:17 13° NW 10:22:50 10° NNW
Cosmos 1242 Rocket 4.2 10:22:17 19° NNW 10:22:17 19° NNW 10:23:24 10° N
AQUA 4.0 10:16:33 10° NNE 10:21:15 65° ESE 10:22:38 43° SSE
Cosmos 1825 4.5 10:20:53 12° ESE 10:22:32 16° E 10:24:45 10° NE
Cosmos 968 Rocket 3.6 10:21:56 48° WSW 10:22:49 55° WNW 10:27:51 10° N
CRYOSAT 2 4.3 10:20:52 10° N 10:25:46 79° W 10:27:00 51° SSW
CZ-2D R/B 2.3 10:22:17 10° N 10:27:39 58° WNW 10:29:09 43° SW
Cosmos 2219 Rocket 4.0 10:22:47 10° N 10:27:45 31° ENE 10:32:42 10° ESE
Cosmos 1892 4.4 10:29:08 19° SE 10:30:39 25° E 10:33:35 10° NE
OAO 3 Rocket 3.2 10:32:13 52° SW 10:32:53 57° S 10:37:41 10° ESE
Cosmos 1408 3.8 10:34:33 25° NW 10:34:33 25° NW 10:36:13 10° NNW
DELTA 2 R/B (1) 3.5 10:30:33 17° WNW 10:34:59 86° N 10:40:34 10° E
Cosmos 2237 4.5 10:30:27 10° NW 10:35:56 47° WSW 10:37:22 39° SW
Cosmos 841 Rocket 4.3 10:31:48 10° NW 10:36:14 32° W 10:36:14 32° W
Meteor 1-24 Rocket 3.8 10:33:42 34° S 10:36:32 87° W 10:42:35 10° N
Cosmos 2360 Rocket 2.4 10:31:20 10° NNW 10:37:01 72° ENE 10:42:39 10° SSE
Cosmos 2221 Rocket 4.5 10:35:30 23° SSE 10:38:01 47° E 10:42:23 10° NNE
Cosmos 2242 Rocket 4.1 10:38:01 39° W 10:38:27 40° WNW 10:42:39 10° N
SL-16 R/B 2.7 10:32:23 10° SSE 10:38:38 76° ENE 10:44:54 10° N
Tiangong -0.8 10:40:03 30° ESE 10:40:03 30° ESE 10:42:12 10° E
Resurs 1-4 Rocket 2.8 10:36:00 10° N 10:40:51 40° WNW 10:42:21 32° WSW
ATLAS 2AS CENTAUR R/B 4.2 10:34:39 10° NNW 10:40:54 37° NE 10:46:55 10° ESE
SL-4 R/B 2.0 10:41:18 52° SW 10:42:17 79° SE 10:46:43 10° NE
Cosmos 2181 Rocket 3.9 10:38:27 10° N 10:44:49 87° W 10:49:46 17° S
Sich 1 Rocket 4.4 10:43:42 10° N 10:48:04 50° E 10:52:21 10° SSE
Cosmos 2151 Rocket 4.1 10:45:42 10° N 10:50:07 58° E 10:54:17 11° SSE
FENGYUN 3A 3.9 10:47:30 10° N 10:52:44 55° WNW 10:55:07 31° SW
Cosmos 2098 Rocket 3.8 10:49:48 10° NNW 10:55:14 69° W 10:59:59 18° S
IRAS Rocket 4.1 10:51:19 10° NNE 10:56:50 81° WNW 11:00:04 26° SSW
SL-8 R/B 3.8 10:52:36 10° WNW 10:57:11 47° SW 11:01:45 10° SSE
CZ-2C R/B 3.2 10:56:38 30° SW 10:57:51 34° W 11:02:33 10° NNW
Lacrosse 5 rocket 1.2 10:54:29 10° NW 10:58:23 53° SW 11:02:05 10° SSE
Cosmos 1674 Rocket 3.5 10:57:38 28° S 10:59:59 88° WNW 11:04:26 10° N
Okean 2 Rocket 3.2 10:58:30 10° N 11:02:54 74° E 11:07:18 10° SSE
Cosmos 1814 Rocket 4.1 11:00:33 10° NNW 11:05:38 53° WSW 11:09:51 15° S
Cosmos 405 Rocket 3.0 11:03:25 10° N 11:07:00 60° E 11:10:37 10° SSE
Cosmos 2333 Rocket 2.2 11:05:33 10° NNW 11:11:13 66° WSW 11:16:53 10° S
ATLAS CENTAUR R/B 1.9 11:11:08 21° S 11:13:02 39° ESE 11:16:21 10° NE
Cosmos 839 Rocket 4.0 11:07:29 10° NNW 11:14:22 85° WSW 11:20:30 10° SSE
Cosmos 2322 Rocket 2.6 11:09:23 10° NW 11:14:39 40° WSW 11:19:22 13° S
Cosmos 1378 Rocket 3.9 11:15:01 26° SW 11:16:59 44° W 11:21:07 10° N
Cosmos 2297 Rocket 4.0 11:14:17 10° SSE 11:18:56 27° ESE 11:23:36 10° NE
ALOS 2.7 11:15:07 10° N 11:19:31 44° WNW 11:22:06 22° SW
Cosmos 1295 Rocket 4.5 11:15:13 17° SSW 11:20:01 66° W 11:26:05 10° N
Cosmos 1486 Rocket 4.1 11:16:34 15° S 11:20:52 76° ESE 11:26:04 10° NNE
SJ 16-02 3.1 11:20:24 15° W 11:21:58 17° WNW 11:24:52 10° NNW
Cosmos 1570 Rocket 4.0 11:19:15 10° NNW 11:24:35 90° NNE 11:29:55 10° SSE
Meteor 1-28 Rocket 4.3 11:25:43 22° WSW 11:26:16 23° W 11:29:09 10° NW
ADEOS II 3.4 11:22:29 10° NNW 11:26:39 25° WNW 11:29:28 16° WSW
Cosmos 2208 Rocket 4.3 11:22:56 10° NNW 11:28:12 72° ENE 11:33:23 10° SSE
Okean 1 Rocket 3.0 11:24:11 10° N 11:28:32 88° E 11:32:50 10° S
UNK 4.0 11:30:05 10° S 11:34:33 46° W 11:39:01 10° NNW
CZ-2C R/B 2.3 11:32:14 10° NNE 11:36:59 81° ESE 11:41:35 10° S
METEOR-M 4.2 11:32:44 10° N 11:38:04 70° WNW 11:43:21 10° SSW
IRS-1D 3.8 11:35:53 10° NNE 11:41:13 73° ESE 11:46:28 10° S
COSMOS 2455 3.9 11:35:39 10° S 11:41:15 43° ESE 11:46:53 10° NE
Envisat 3.1 11:36:41 10° N 11:41:42 62° WNW 11:46:41 10° SSW
Cosmos 158 Rocket 4.1 11:40:48 10° NNW 11:46:13 89° WSW 11:51:32 10° SSE
RESURS DK-1 3.1 11:43:30 10° NW 11:47:03 30° WSW 11:50:37 10° SSW
CZ-4C R/B 3.6 11:51:52 10° SSE 11:55:18 25° ESE 11:59:15 10° NE
Cosmos 1825 3.4 11:54:26 13° WSW 11:56:35 21° WNW 11:59:14 10° NNW
